COSMOS 1275 DEB, 12745

Orbit data source: Space-Track

COSMOS 1275 DEB, 12745 is space debris in LEO originally from a launch on Thu, 04 Jun 1981 UTC launched from the Plesetsk Missile And Space Complex (PKMTR). Debris objects in space refer to the collection of defunct objects orbiting the Earth. Examples of debris include non-operational satellites, rocket bodies, and fragments generated from explosions, collisions, or faulty payload assembly.

Loading next visibility...
Identifier
12745, 1981-053CN
Orbit
LEO
Country
Flag of CISCIS
Related business
Manufacturer
Unknown
Mission
Spacecraft
Bus & Motor
Unknown
Mass
Unknown
Launch date (UTC)
1981-06-04 (45 years ago)
Launch vehicle
Unknown
Launch site
Plesetsk Missile And Space Complex (PKMTR)
Object type
Payload
Rocket body
Debris
Shape & HBR
Unknown shape, 0.1 m
Radar Cross Section
Small (<0.1 m²)

Expand to show TLE details & history
Last TLE update: 11 hours ago

TLE from 11 hours ago
0 COSMOS 1275 DEB
1 12745U 81053CN  25340.86917751  .00000857  00000-0  66199-3 0  9998
2 12745  83.1370 272.3282 0044555 124.0208 298.8703 13.91277659232339
Epoch: 2025-12-06T20:51Z
TLE epoch observation values (Epoch: 2025-12-06T20:51:36.936Z)
Latitude
61.7579°
Longitude
-103.58713°
Altitude
919.139 km
Speed
7.406 km/s
True Right ascension
19h 00m 49s
True Declination
61° 37' 03"
Sunlit
Object was in daylight at epoch
Visualization orbit readout
Latitude
Unknown
Longitude
Unknown
Altitude
Unknown
Speed
Unknown
Apparent Right ascension
Unknown
Apparent Declination
Unknown
Sunlit
N/A
Visualization observer readout
Local Sidereal Time
06:13:32
Azimuth
Unknown
Elevation
Unknown
Doppler factor
Unknown
Orbital elements
Apogee altitude
953.798 km
Perigee altitude
888.753 km
Semi-major axis
7,299.413 km
Eccentricity
0.00446
Inclination
83.137°
RAAN
272.3282°
Arg. of periapsis
124.0208°
True anomaly
298.42199°
Mean anomaly
298.8703°
Eccentric anomaly
298.64627°
Mean motion
3.48026 °/min
Orbital period
103.44 mins
BSTAR
0.00066199
Loading maneuver chart data...
Computing Atmospheric mass density...

Documentation

Showing up to 5 results
|